OBJECT AE, 63238

Orbit data source: Space-Track

You're viewing an Uncataloged Satellite

Recently launched and/or uncataloged satellites may have evolving metadata. Metadata may include but not limited to: Owner, Maufacturer, Bus, Motor, and Mission.

OBJECT AE, 63238 is a satellite in SSO that was launched on Sat, 15 Mar 2025 UTC via an FALCON 9 launch vehicle from the Air Force Western Test Range (AFWTR). Unknown objects in Earth's orbit typically refer to objects detected orbiting the Earth but have not yet been identified or cataloged. These objects could be anything from previously untracked satellites, spent rocket stages, debris from satellite collisions, or even natural meteoroids temporarily captured by Earth's gravity.

Loading next visibility...
Identifier
63238, 2025-052AE
Orbit
SSO
Country
Flag of TBDTBD
Related business
Flag of ILTel Aviv University (IL)
Manufacturer
ISA/TAU
Mission
Operational Defense Calibration
Bus & Motor
CUBESAT 1U, Unknown motor
Mass
1 kg wet, 1 kg dry
Launch date (UTC)
2025-03-15 (1 year ago)
Launch vehicle
FALCON 9
Launch site
Air Force Western Test Range (AFWTR)
Object type
Unknown
Shape & HBR
Box, 0.1 m
Radar Cross Section
0.080 m², Small (<0.1 m²)

Expand to show TLE details & history
Last TLE update: 13 hours ago

TLE from 13 hours ago
0 OBJECT AE
1 63238U 25052AE  26129.70074179  .00010919  00000-0  37295-3 0  9990
2 63238  97.3979  25.0611 0004165 282.2953  77.7822 15.30471471 64130
Epoch: 2026-05-09T16:49Z
TLE epoch observation values (Epoch: 2026-05-09T16:49:04.090Z)
Latitude
0.00003°
Longitude
-94.72035°
Altitude
476.906 km
Speed
7.628 km/s
True Right ascension
01h 40m 14s
True Declination
0° 00' 00"
Sunlit
Object was in daylight at epoch
Visualization orbit readout
Latitude
Unknown
Longitude
Unknown
Altitude
Unknown
Speed
Unknown
Apparent Right ascension
Unknown
Apparent Declination
Unknown
Sunlit
N/A
Visualization observer readout
Local Sidereal Time
13:33:23
Azimuth
Unknown
Elevation
Unknown
Doppler factor
Unknown
Orbital elements
Apogee altitude
474.209 km
Perigee altitude
468.503 km
Semi-major axis
6,849.493 km
Eccentricity
0.00042
Inclination
97.3979°
RAAN
25.0611°
Arg. of periapsis
282.2953°
True anomaly
77.82885°
Mean anomaly
77.7822°
Eccentric anomaly
77.80553°
Mean motion
3.82874 °/min
Orbital period
94.03 mins
BSTAR
0.00037295
Loading maneuver chart data...
Computing Atmospheric mass density...
Loading historical data...
Loading historical data...
Loading historical data...
Loading historical data...
Loading historical data...
Loading historical data...
Loading historical data...

Documentation

Showing up to 5 results
|